• In Hungary
  • List of Countries
  • For 7 days
  • Water Temperature
  • Satellite Maps
  • Weather Map
  • News
  • Weather Widgets
  • user-avatar
    Login

    Hourly Weather Kichmalka

    Today, 20 October, Saturday

    Time Temperature Precipitation Wind Pressure Humidity
    00:00 +9°C° 0 mm 2 mps 656 mmHg 70%
    01:00 +9°C° 0 mm 2 mps 656 mmHg 68%
    02:00 +9°C° 0 mm 2 mps 656 mmHg 66%
    03:00 +9°C° 0 mm 2 mps 656 mmHg 67%
    04:00 +9°C° 0 mm 2 mps 656 mmHg 64%
    05:00 +9°C° 0 mm 2 mps 656 mmHg 62%
    06:00 +9°C° 0 mm 2 mps 656 mmHg 59%
    07:00 +12°C° 0 mm 1 mps 657 mmHg 54%
    08:00 +14°C° 0 mm 1 mps 657 mmHg 49%
    09:00 +15°C° 0 mm 0 mps 658 mmHg 45%
    10:00 +18°C° 0 mm 1 mps 658 mmHg 42%
    11:00 +19°C° 0 mm 1 mps 658 mmHg 39%
    12:00 +19°C° 0 mm 2 mps 658 mmHg 37%
    13:00 +19°C° 0 mm 2 mps 658 mmHg 38%
    14:00 +19°C° 0 mm 2 mps 658 mmHg 39%
    15:00 +19°C° 0 mm 2 mps 658 mmHg 41%
    16:00 +17°C° 0 mm 2 mps 657 mmHg 49%
    17:00 +15°C° 0 mm 1 mps 657 mmHg 57%
    18:00 +13°C° 0 mm 1 mps 656 mmHg 65%
    19:00 +13°C° 0 mm 1 mps 656 mmHg 65%
    20:00 +12°C° 0 mm 1 mps 656 mmHg 65%
    21:00 +12°C° 0 mm 1 mps 656 mmHg 65%
    22:00 +12°C° 0 mm 1 mps 656 mmHg 64%
    23:00 +11°C° 0 mm 1 mps 655 mmHg 62%

    Tomorrow, 21 October, Sunday

    Time Temperature Precipitation Wind Pressure Humidity
    00:00 +11°C° 0 mm 1 mps 655 mmHg 61%
    01:00 +11°C° 0 mm 1 mps 655 mmHg 60%
    02:00 +11°C° 0 mm 1 mps 655 mmHg 59%
    03:00 +11°C° 0 mm 1 mps 655 mmHg 57%
    04:00 +10°C° 0 mm 1 mps 655 mmHg 57%
    05:00 +10°C° 0 mm 1 mps 655 mmHg 57%
    06:00 +10°C° 0 mm 1 mps 655 mmHg 57%
    07:00 +12°C° 0 mm 1 mps 655 mmHg 54%
    08:00 +13°C° 0 mm 1 mps 656 mmHg 50%
    09:00 +15°C° 0 mm 1 mps 657 mmHg 47%
    10:00 +16°C° 0 mm 2 mps 657 mmHg 46%
    11:00 +17°C° 0 mm 2 mps 657 mmHg 45%
    12:00 +18°C° 0 mm 3 mps 657 mmHg 43%
    13:00 +18°C° 0 mm 3 mps 657 mmHg 46%
    14:00 +17°C° 0 mm 3 mps 657 mmHg 48%
    15:00 +17°C° 0 mm 3 mps 656 mmHg 50%
    16:00 +14°C° 0 mm 3 mps 656 mmHg 58%
    17:00 +14°C° 0 mm 2 mps 656 mmHg 65%
    18:00 +12°C° 0 mm 2 mps 655 mmHg 73%
    19:00 +12°C° 0 mm 2 mps 655 mmHg 73%
    20:00 +12°C° 0 mm 2 mps 656 mmHg 73%
    21:00 +11°C° 0 mm 1 mps 656 mmHg 73%
    22:00 +11°C° 0 mm 1 mps 656 mmHg 72%
    23:00 +11°C° 0 mm 1 mps 656 mmHg 72%

    Day after tomorrow, 22 October, Monday

    Time Temperature Precipitation Wind Pressure Humidity
    00:00 +11°C° 0 mm 1 mps 656 mmHg 72%
    01:00 +11°C° 0 mm 1 mps 655 mmHg 72%
    02:00 +11°C° 0 mm 1 mps 655 mmHg 72%
    03:00 +11°C° 0 mm 1 mps 655 mmHg 73%
    04:00 +10°C° 0.3 mm 1 mps 655 mmHg 74%
    05:00 +10°C° 0.3 mm 1 mps 655 mmHg 76%
    06:00 +10°C° 0.3 mm 1 mps 656 mmHg 78%
    07:00 +11°C° 0.4 mm 1 mps 656 mmHg 77%
    08:00 +11°C° 0.4 mm 1 mps 657 mmHg 76%
    09:00 +12°C° 0.4 mm 1 mps 657 mmHg 75%
    10:00 +13°C° 0.1 mm 1 mps 657 mmHg 73%
    11:00 +13°C° 0.1 mm 1 mps 657 mmHg 71%
    12:00 +14°C° 0.1 mm 2 mps 658 mmHg 69%
    13:00 +14°C° 0.1 mm 2 mps 658 mmHg 71%
    14:00 +14°C° 0.1 mm 2 mps 657 mmHg 73%
    15:00 +14°C° 0.1 mm 2 mps 657 mmHg 75%
    16:00 +13°C° 0.1 mm 2 mps 657 mmHg 80%
    17:00 +12°C° 0.1 mm 2 mps 657 mmHg 85%
    18:00 +11°C° 0.1 mm 1 mps 657 mmHg 90%
    19:00 +10°C° 0 mm 1 mps 657 mmHg 89%
    20:00 +10°C° 0 mm 1 mps 657 mmHg 89%
    21:00 +10°C° 0 mm 1 mps 657 mmHg 88%
    22:00 +10°C° 0 mm 1 mps 657 mmHg 86%
    23:00 +9°C° 0 mm 1 mps 656 mmHg 84%

    23 October, Tuesday

    Time Temperature Precipitation Wind Pressure Humidity
    00:00 +9°C° 0 mm 1 mps 656 mmHg 82%
    01:00 +9°C° 0 mm 1 mps 656 mmHg 81%
    02:00 +9°C° 0 mm 1 mps 656 mmHg 80%
    03:00 +9°C° 0 mm 1 mps 656 mmHg 78%
    04:00 +9°C° 0 mm 1 mps 656 mmHg 77%
    05:00 +9°C° 0 mm 1 mps 656 mmHg 76%
    06:00 +9°C° 0 mm 1 mps 656 mmHg 75%
    07:00 +10°C° 0 mm 1 mps 656 mmHg 71%
    08:00 +12°C° 0 mm 1 mps 657 mmHg 66%
    09:00 +12°C° 0 mm 0 mps 657 mmHg 61%
    10:00 +14°C° 0 mm 1 mps 657 mmHg 60%
    11:00 +15°C° 0 mm 1 mps 657 mmHg 58%
    12:00 +16°C° 0 mm 1 mps 657 mmHg 56%
    13:00 +15°C° 0.3 mm 1 mps 657 mmHg 60%
    14:00 +15°C° 0.3 mm 1 mps 657 mmHg 63%
    15:00 +15°C° 0.3 mm 2 mps 656 mmHg 66%
    16:00 +14°C° 0.3 mm 1 mps 656 mmHg 73%
    17:00 +12°C° 0.3 mm 1 mps 656 mmHg 80%
    18:00 +11°C° 0.3 mm 1 mps 656 mmHg 86%
    19:00 +11°C° 0 mm 1 mps 656 mmHg 86%
    20:00 +10°C° 0 mm 1 mps 655 mmHg 85%
    21:00 +9°C° 0 mm 2 mps 655 mmHg 84%
    22:00 +9°C° 0 mm 2 mps 655 mmHg 81%
    23:00 +8°C° 0 mm 2 mps 655 mmHg 78%

    24 October, Wednesday

    Time Temperature Precipitation Wind Pressure Humidity
    00:00 +8°C° 0 mm 2 mps 655 mmHg 75%
    01:00 +8°C° 0 mm 2 mps 654 mmHg 74%
    02:00 +8°C° 0 mm 2 mps 654 mmHg 72%
    03:00 +8°C° 0 mm 2 mps 654 mmHg 71%
    04:00 +7°C° 0 mm 2 mps 653 mmHg 70%
    05:00 +7°C° 0 mm 2 mps 653 mmHg 69%
    06:00 +7°C° 0 mm 2 mps 653 mmHg 68%
    07:00 +9°C° 0 mm 2 mps 653 mmHg 64%
    08:00 +10°C° 0 mm 2 mps 653 mmHg 59%
    09:00 +13°C° 0 mm 2 mps 653 mmHg 55%
    10:00 +14°C° 0 mm 2 mps 653 mmHg 53%
    11:00 +14°C° 0 mm 3 mps 653 mmHg 51%
    12:00 +17°C° 0 mm 3 mps 653 mmHg 49%
    13:00 +17°C° 0 mm 3 mps 652 mmHg 50%
    14:00 +17°C° 0 mm 3 mps 652 mmHg 50%
    15:00 +17°C° 0 mm 3 mps 651 mmHg 51%
    16:00 +14°C° 0 mm 3 mps 650 mmHg 56%
    17:00 +13°C° 0 mm 3 mps 650 mmHg 60%
    18:00 +11°C° 0 mm 3 mps 649 mmHg 65%
    19:00 +11°C° 0 mm 3 mps 649 mmHg 61%
    20:00 +11°C° 0 mm 3 mps 649 mmHg 58%
    21:00 +11°C° 0 mm 3 mps 648 mmHg 54%
    22:00 +11°C° 0 mm 3 mps 648 mmHg 53%
    23:00 +11°C° 0 mm 3 mps 647 mmHg 52%

    25 October, Thursday

    Time Temperature Precipitation Wind Pressure Humidity
    00:00 +11°C° 0 mm 3 mps 647 mmHg 52%
    01:00 +11°C° 0 mm 3 mps 647 mmHg 52%
    02:00 +11°C° 0 mm 3 mps 646 mmHg 53%
    03:00 +11°C° 0 mm 3 mps 646 mmHg 53%
    04:00 +11°C° 0 mm 3 mps 646 mmHg 54%
    05:00 +11°C° 0 mm 3 mps 646 mmHg 54%
    06:00 +11°C° 0 mm 3 mps 645 mmHg 55%
    07:00 +12°C° 0 mm 3 mps 646 mmHg 52%
    08:00 +15°C° 0 mm 2 mps 646 mmHg 50%
    09:00 +16°C° 0 mm 2 mps 646 mmHg 47%
    10:00 +17°C° 0 mm 2 mps 646 mmHg 43%
    11:00 +19°C° 0 mm 2 mps 646 mmHg 39%
    12:00 +20°C° 0 mm 2 mps 646 mmHg 35%
    13:00 +20°C° 0 mm 2 mps 645 mmHg 36%
    14:00 +19°C° 0 mm 2 mps 645 mmHg 37%
    15:00 +19°C° 0 mm 2 mps 645 mmHg 37%
    16:00 +17°C° 0 mm 2 mps 645 mmHg 43%
    17:00 +16°C° 0 mm 2 mps 644 mmHg 48%
    18:00 +14°C° 0 mm 1 mps 644 mmHg 53%
    19:00 +13°C° 0.2 mm 2 mps 644 mmHg 59%
    20:00 +12°C° 0.2 mm 3 mps 644 mmHg 65%
    21:00 +11°C° 0.2 mm 4 mps 644 mmHg 70%
    22:00 +10°C° 0.2 mm 4 mps 645 mmHg 75%
    23:00 +8°C° 0.2 mm 4 mps 645 mmHg 79%
    Show more